This is the latest recevied weather packets stored in our database for station/object WB3EGK. If no packets are shown the sender has not sent any weather packets the latest 10 day(s).
| Time | Temp. | Humidity | Pressure | Rain* | Wind** | Luminosity | Snow |
|---|---|---|---|---|---|---|---|
| 1777559655 | 4.44° C | 1% | 1009.6 hPa | 0 mm | - | 143 W/m² | - |
| 1777559354 | 4.44° C | 1% | 1009.4 hPa | 0 mm | - | 141 W/m² | - |
| 1777559050 | 4.44° C | 1% | 1009.4 hPa | 0 mm | - | 136 W/m² | - |
| 1777558744 | 4.44° C | 1% | 1009.1 hPa | 0 mm | - | 74 W/m² | - |
| 1777558441 | 4.44° C | 1% | 1009.1 hPa | 0 mm | - | 99 W/m² | - |
| 1777558137 | 4.44° C | 1% | 1009.5 hPa | 0 mm | - | 69 W/m² | - |
| 1777557834 | 4.44° C | 1% | 1009.3 hPa | 0 mm | - | 58 W/m² | - |
| 1777557531 | 5° C | 1% | 1009.4 hPa | 0 mm | - | 72 W/m² | - |
| 1777557227 | 4.44° C | 1% | 1009.3 hPa | 0 mm | - | 120 W/m² | - |
| 1777556923 | 4.44° C | 1% | 1009 hPa | 0 mm | - | 185 W/m² | - |
| 1777556618 | 3.89° C | 1% | 1009 hPa | 0 mm | - | 221 W/m² | - |
| 1777556313 | 3.89° C | 1% | 1009 hPa | 0 mm | - | 134 W/m² | - |
| 1777556009 | 4.44° C | 1% | 1009.1 hPa | 0 mm | - | 111 W/m² | - |
| 1777555704 | 3.89° C | 1% | 1009.3 hPa | 0 mm | - | 129 W/m² | - |
| 1777555401 | 3.89° C | 1% | 1009 hPa | 0 mm | - | 105 W/m² | - |
| 1777555097 | 3.89° C | 1% | 1008.9 hPa | 0 mm | - | 113 W/m² | - |
| 1777554795 | 3.89° C | 1% | 1008.8 hPa | 0 mm | - | 93 W/m² | - |
| 1777554492 | 3.89° C | 1% | 1009 hPa | 0 mm | - | 104 W/m² | - |
| 1777554189 | 3.89° C | 1% | 1008.8 hPa | 0 mm | - | 144 W/m² | - |
| 1777553886 | 3.89° C | 1% | 1009 hPa | 0 mm | - | 166 W/m² | - |
| 1777553582 | 3.89° C | 1% | 1008.8 hPa | 0 mm | - | 125 W/m² | - |
| 1777553276 | 3.89° C | 1% | 1008.9 hPa | 0 mm | - | 58 W/m² | - |
| 1777552974 | 3.89° C | 1% | 1009 hPa | 0 mm | - | 66 W/m² | - |
| 1777552668 | 3.89° C | 1% | 1008.6 hPa | 1.27 mm | - | 71 W/m² | - |
| 1777552366 | 4.44° C | 1% | 1008.7 hPa | 1.27 mm | - | 35 W/m² | - |
* Rain latest hour (hover to see other rain measurements)
** Current wind speed in m/s (hover to see current wind gust speed)